Total_Precipitation_Accumulation
0.33 0.32 0.43 0.30 0.23 0.24 0.27 0.29 0.30 0.31 0.31 0.30 0.30 0.33 0.31 0.30 0.31 0.34 0.43 0.59 0.60 0.61 0.61 0.67 0.77 0.79 0.74 0.71 0.71 0.67 0.59 0.59 0.63 0.66 0.65 0.72 0.81 1.01 1.23 1.15 1.13 0.80 0.72
0.20 0.22 0.37 0.29 0.21 0.23 0.24 0.27 0.27 0.27 0.28 0.29 0.31 0.34 0.36 0.39 0.41 0.43 0.50 0.66 0.64 0.62 0.59 0.66 0.70 0.67 0.66 0.59 0.56 0.52 0.50 0.56 0.64 0.72 0.67 0.63 0.82 1.08 1.24 1.17 1.24 0.74 0.65
0.13 0.16 0.25 0.30 0.23 0.21 0.23 0.28 0.29 0.29 0.27 0.27 0.30 0.35 0.40 0.51 0.59 0.57 0.59 0.73 0.77 0.71 0.67 0.69 0.61 0.55 0.55 0.47 0.45 0.44 0.47 0.59 0.69 0.87 0.91 0.71 0.63 1.09 1.23 1.14 0.87 0.56 0.57
0.11 0.16 0.20 0.25 0.26 0.23 0.22 0.26 0.30 0.30 0.29 0.31 0.37 0.39 0.43 0.47 0.51 0.51 0.57 0.71 0.79 0.71 0.66 0.53 0.47 0.42 0.39 0.32 0.35 0.39 0.48 0.62 0.82 1.13 1.28 0.99 0.58 0.88 1.07 0.94 0.72 0.56 0.54
0.15 0.13 0.22 0.29 0.31 0.29 0.22 0.24 0.28 0.32 0.32 0.34 0.39 0.43 0.45 0.46 0.48 0.48 0.51 0.63 0.65 0.55 0.46 0.40 0.41 0.36 0.30 0.25 0.29 0.38 0.48 0.66 0.86 1.19 1.15 1.10 0.97 0.91 0.90 0.87 0.75 0.71 0.64
0.21 0.18 0.24 0.32 0.33 0.34 0.28 0.26 0.31 0.34 0.36 0.37 0.43 0.47 0.46 0.48 0.50 0.47 0.48 0.56 0.55 0.48 0.39 0.40 0.41 0.36 0.30 0.26 0.28 0.34 0.44 0.68 0.85 0.79 0.82 0.93 0.87 0.86 0.84 0.91 0.91 0.83 0.72
0.42 0.37 0.35 0.41 0.42 0.40 0.33 0.30 0.30 0.33 0.38 0.40 0.45 0.46 0.45 0.47 0.47 0.46 0.46 0.49 0.44 0.40 0.37 0.39 0.41 0.34 0.36 0.36 0.33 0.35 0.48 0.73 0.79 0.70 0.74 1.03 0.90 0.69 0.85 1.03 1.14 1.01 0.79
0.57 0.56 0.49 0.51 0.51 0.50 0.41 0.37 0.38 0.37 0.37 0.41 0.44 0.42 0.42 0.41 0.43 0.44 0.45 0.41 0.32 0.30 0.32 0.38 0.44 0.38 0.38 0.43 0.38 0.37 0.50 0.66 0.61 0.65 0.62 0.74 0.64 0.65 0.85 1.07 1.17 1.09 0.93
0.70 0.68 0.61 0.58 0.52 0.56 0.53 0.46 0.47 0.47 0.44 0.43 0.42 0.39 0.38 0.37 0.41 0.42 0.41 0.37 0.32 0.31 0.31 0.35 0.39 0.37 0.35 0.40 0.45 0.46 0.57 0.75 0.76 0.78 0.63 0.72 0.65 0.77 0.98 1.15 1.22 1.17 1.11
1.08 0.86 0.73 0.73 0.72 0.68 0.64 0.56 0.55 0.51 0.50 0.51 0.46 0.45 0.45 0.49 0.47 0.47 0.44 0.41 0.41 0.40 0.36 0.35 0.40 0.38 0.39 0.38 0.43 0.58 0.77 0.75 0.64 0.74 0.82 0.67 0.69 0.97 1.24 1.29 1.35 1.36 1.32
1.47 1.22 1.00 0.90 0.88 0.82 0.74 0.67 0.72 0.69 0.66 0.65 0.63 0.60 0.59 0.71 0.72 0.67 0.59 0.63 0.62 0.61 0.62 0.62 0.65 0.60 0.57 0.47 0.55 0.78 0.85 0.71 0.81 0.97 0.99 0.75 0.88 1.22 1.50 1.52 1.51 1.51 1.51
1.62 1.32 1.23 1.13 1.01 0.94 0.80 0.85 1.07 0.96 0.89 0.90 0.96 0.89 0.96 1.07 1.07 0.79 0.83 1.03 1.13 1.19 1.15 1.23 1.35 1.09 0.89 0.92 1.38 1.44 0.85 0.81 1.04 1.11 1.08 0.94 1.18 1.56 1.73 1.80 1.77 1.66 1.61
1.92 1.60 1.47 1.35 1.25 1.26 1.33 1.17 1.22 1.22 1.24 1.24 1.25 1.26 1.29 1.15 1.06 1.03 1.16 1.41 1.58 1.63 1.59 1.88 1.93 1.47 1.53 1.86 1.95 1.70 1.17 1.16 1.29 1.25 1.36 1.39 1.44 1.86 2.26 2.27 2.20 1.99 1.81
2.25 1.94 1.72 1.61 1.60 1.65 1.59 1.50 1.37 1.38 1.39 1.44 1.52 1.49 1.59 1.68 1.61 1.64 1.70 1.74 1.92 2.04 2.29 2.39 2.51 2.18 2.16 2.01 1.86 1.76 1.62 1.74 1.64 1.79 2.12 1.93 1.68 1.94 2.59 2.72 2.62 2.41 2.01
2.44 2.13 2.07 1.82 1.72 1.77 1.86 1.90 1.72 1.81 1.74 1.72 1.81 1.88 1.94 2.14 2.15 2.14 2.05 2.06 1.98 2.18 2.40 2.74 2.68 2.90 2.84 2.50 2.11 1.94 1.96 2.05 1.98 2.10 2.33 2.36 2.19 2.21 2.89 3.26 3.16 2.87 2.45
2.40 2.22 2.17 2.04 2.06 2.15 2.11 2.14 2.20 2.23 2.22 2.13 2.07 2.10 2.15 2.36 2.58 2.53 2.33 2.32 2.20 2.26 2.58 2.83 2.86 3.29 3.13 2.95 2.48 2.28 2.13 2.11 2.11 2.24 2.44 2.60 2.53 2.48 2.85 3.28 3.50 3.39 2.99
2.19 2.28 2.42 2.53 2.70 2.79 2.76 2.70 2.63 2.66 2.59 2.57 2.68 2.68 2.70 2.68 2.72 2.60 2.49 2.39 2.49 2.60 2.76 2.82 2.95 3.30 3.06 2.96 2.80 2.58 2.37 2.21 2.13 2.27 2.58 2.86 2.59 2.50 2.81 3.21 3.57 3.49 3.30
2.22 2.33 2.56 2.64 2.97 3.17 3.19 3.24 3.17 3.10 2.96 3.02 3.02 3.01 2.98 2.89 2.77 2.83 2.62 2.43 2.64 2.76 2.91 3.10 3.07 3.15 3.21 3.19 3.06 2.73 2.56 2.45 2.16 2.23 2.37 2.54 2.72 2.32 2.69 3.20 3.39 3.20 3.20
2.55 2.79 3.11 3.19 3.11 3.20 3.38 3.49 3.29 3.21 3.08 3.00 2.91 2.92 2.80 2.68 2.67 2.96 2.79 2.76 2.84 3.05 2.95 2.75 3.14 3.26 3.24 3.21 2.89 2.78 2.44 2.34 2.23 2.13 2.22 2.32 2.50 2.48 2.53 2.62 3.05 2.94 3.14
2.87 3.20 3.37 3.42 3.61 3.90 4.07 3.95 3.70 3.30 3.02 2.89 2.78 2.66 2.59 2.61 2.62 2.90 2.71 2.73 2.91 3.16 3.23 3.22 3.37 3.28 3.14 3.19 2.79 2.63 2.32 2.04 2.00 1.96 1.86 2.07 2.14 1.95 2.08 2.29 2.65 2.27 2.48
2.88 3.07 3.32 3.70 4.06 4.17 4.01 3.92 3.81 3.48 3.20 2.87 2.57 2.49 2.57 2.49 2.55 2.82 2.59 2.90 2.99 3.09 3.22 3.24 3.40 3.29 3.09 3.22 3.10 2.65 2.16 1.87 1.75 1.61 1.68 1.82 1.77 1.85 2.10 2.43 2.68 2.66 2.35
2.71 2.99 3.33 3.66 3.99 3.94 4.03 4.18 4.06 3.82 3.23 2.88 2.71 2.59 2.53 2.51 2.48 2.57 2.91 2.93 3.01 3.13 3.12 3.06 3.11 2.95 2.72 3.04 3.11 2.93 2.35 2.00 1.67 1.39 1.59 1.59 1.70 1.96 2.01 2.03 2.33 2.66 2.54
2.78 3.17 3.40 3.62 3.74 3.79 3.93 4.02 3.73 3.51 3.03 2.88 2.89 2.72 2.58 2.61 2.62 2.70 2.88 2.94 2.89 2.80 2.86 2.95 2.85 2.74 2.59 2.71 2.91 2.94 2.50 2.07 1.71 1.45 1.41 1.46 1.77 1.94 1.91 1.91 1.89 2.03 2.11
2.71 3.18 3.59 3.58 3.55 3.47 3.61 3.71 3.49 3.13 2.84 2.73 2.74 2.55 2.43 2.37 2.37 2.46 2.52 2.65 2.72 2.67 2.69 2.60 2.59 2.62 2.58 2.46 2.63 2.66 2.53 2.33 2.11 1.67 1.36 1.37 1.60 1.71 1.68 1.57 1.67 1.90 2.01
2.38 2.76 3.14 3.41 3.45 3.28 3.25 3.29 3.34 3.10 2.77 2.57 2.50 2.41 2.35 2.34 2.17 2.13 2.23 2.39 2.43 2.34 2.33 2.46 2.66 2.62 2.46 2.34 2.44 2.52 2.65 2.58 2.31 2.00 1.60 1.45 1.42 1.32 1.41 1.45 1.51 1.60 1.81
2.22 2.52 2.73 2.93 2.98 2.92 2.83 2.84 2.91 2.86 2.75 2.50 2.32 2.32 2.34 2.25 2.07 1.98 1.98 2.08 2.12 2.12 2.09 2.11 2.24 2.30 2.29 2.38 2.41 2.40 2.53 2.52 2.42 2.30 1.91 1.65 1.49 1.19 1.22 1.30 1.41 1.49 1.60